Flag for U.S.A. Weather past 2 weeks in Lexington, Virginia, U.S.A.

Now
26 °F

Light snow. Overcast.


Feels Like: 13 °F
Forecast: 26 / 37 °F
Wind: 15 mph from Northwest

Location: Hot Springs / Ingalls

Current Time: Mar 28, 2015 at 12:29:04 AM

Latest Report: Mar 27, 2015 at 11:35 PM


Visibility: 10 mi

Pressure: 29.74 "Hg

Humidity: 80%

Dew point: 20 °F

Location of LexingtonLocation

Historic Weather in Lexington — Graph

°F

Lexington temperature yesterday

Maximum temperature yesterday: 40 °F (at 12:15 AM)
Minimum temperature yesterday: 26 °F (at 10:55 PM)
Average temperature yesterday: 33 °F

Past Weeks' High & Low Weather Summary

 TemperatureHumidityPressure
High67 °F (Mar 26, 2:15 PM)100% (Mar 13, 8:15 PM)30.48 "Hg (Mar 13, 8:15 PM)
Low23 °F (Mar 18, 7:55 AM)11% (Mar 18, 5:55 PM)29.67 "Hg (Mar 27, 3:15 PM)
Average42 °F65%30.03 "Hg
* Reported Mar 12 10:15 PM — Mar 27 10:55 PM, Lexington, Weather by CustomWeather, © 2015

Note: Actual official high and low records may vary slightly from our data, if they occured in-between our weather recording intervals... More about our weather records

Advertising

Lexington weather history for previous 24 hours

 ConditionsComfort  
Time TempWeatherWind HumidityBarometerVisibility
10:55 PM
Fri, Mar 27
26 °FMostly cloudy.16 mph78%29.74 "Hg10 mi
10:35 PM26 °FOvercast.16 mph77%29.74 "Hg10 mi
10:15 PM27 °FPartly cloudy.15 mph76%29.73 "Hg10 mi
9:55 PM27 °FPassing clouds.14 mph75%29.73 "Hg10 mi
9:35 PM27 °FPassing clouds.12 mph72%29.74 "Hg10 mi
9:15 PM28 °FOvercast.14 mph72%29.73 "Hg10 mi
8:55 PM28 °FOvercast.12 mph71%29.73 "Hg10 mi
8:35 PM28 °FOvercast.9 mph71%29.73 "Hg10 mi
8:15 PM28 °FMore clouds than sun.14 mph71%29.73 "Hg10 mi
7:55 PM28 °FScattered clouds.17 mph70%29.71 "Hg10 mi
7:35 PM29 °FScattered clouds.21 mph69%29.71 "Hg10 mi
7:15 PM30 °FBroken clouds.15 mph68%29.71 "Hg10 mi
6:55 PM32 °FOvercast.14 mph65%29.71 "Hg10 mi
6:35 PM32 °FPartly sunny.13 mph64%29.71 "Hg10 mi
6:15 PM35 °FBroken clouds.8 mph61%29.71 "Hg10 mi
5:55 PM34 °FBroken clouds.10 mph63%29.68 "Hg10 mi
5:15 PM37 °FCloudy.12 mph59%29.67 "Hg10 mi
4:55 PM37 °FBroken clouds.8 mph54%29.67 "Hg10 mi
4:35 PM37 °FPartly sunny.10 mph56%29.67 "Hg10 mi
4:15 PM37 °FPartly sunny.9 mph56%29.67 "Hg10 mi
3:55 PM38 °FBroken clouds.13 mph61%29.67 "Hg10 mi
3:15 PM37 °FOvercast.10 mph64%29.67 "Hg10 mi
2:55 PM37 °FMostly cloudy.9 mph63%29.68 "Hg10 mi
2:35 PM36 °FMostly cloudy.12 mph64%29.68 "Hg10 mi
2:15 PM36 °FMostly cloudy.9 mph70%29.69 "Hg10 mi
1:55 PM35 °FOvercast.7 mph74%29.69 "Hg10 mi
1:15 PM32 °FOvercast.8 mph80%29.71 "Hg10 mi
12:55 PM32 °FMostly cloudy.9 mph85%29.71 "Hg10 mi
12:35 PM32 °FOvercast.5 mph88%29.71 "Hg10 mi
12:20 PM32 °FOvercast.12 mph89%29.71 "Hg10 mi
11:55 AM31 °FOvercast.7 mph91%29.72 "Hg10 mi
11:15 AM31 °FLow clouds.7 mph100%29.72 "Hg10 mi
10:55 AM31 °FLow clouds.12 mph100%29.72 "Hg10 mi
10:15 AM31 °FIce fog.10 mph100%29.73 "Hg1 mi
9:55 AM31 °FIce fog.10 mph100%29.73 "Hg0 mi
9:35 AM31 °FIce fog.13 mph100%29.72 "Hg0 mi
9:15 AM31 °FIce fog.12 mph100%29.69 "Hg0 mi
8:55 AM32 °FIce fog.9 mph100%29.69 "Hg0 mi
8:15 AM32 °FLight snow. Low clouds.12 mph100%29.71 "Hg0 mi
7:55 AM32 °FLight snow. Low clouds.10 mph100%29.69 "Hg0 mi
7:15 AM32 °FLight snow. Low clouds.12 mph100%29.71 "Hg0 mi
6:55 AM32 °FSnow. Low clouds.13 mph100%29.71 "Hg0 mi
6:35 AM33 °FLight snow. Low clouds.12 mph100%29.69 "Hg1 mi
6:15 AM33 °FFog.9 mph100%29.71 "Hg0 mi
5:55 AM33 °FFog.9 mph100%29.69 "Hg1 mi
5:35 AM33 °FFog.12 mph100%29.69 "Hg0 mi
5:15 AM33 °FFog.12 mph100%29.69 "Hg0 mi
4:55 AM33 °FLight snow. Low clouds.12 mph100%29.69 "Hg0 mi
4:35 AM33 °FFog.10 mph100%29.69 "Hg0 mi
4:15 AM33 °FFog.10 mph100%29.71 "Hg0 mi
3:55 AM33 °FLight snow. Low clouds.10 mph100%29.72 "Hg0 mi
3:35 AM33 °FLight snow. Low clouds.13 mph100%29.73 "Hg0 mi
3:15 AM33 °FLight snow. Low clouds.12 mph100%29.73 "Hg1 mi
2:55 AM34 °FLight snow. Low clouds.12 mph100%29.74 "Hg0 mi
2:15 AM36 °FRain. Low clouds.12 mph100%29.73 "Hg1 mi
1:55 AM37 °FFog.14 mph100%29.75 "Hg1 mi
1:35 AM37 °FLight rain. Low clouds.15 mph100%29.75 "Hg0 mi
1:15 AM38 °FDrizzle. Low clouds.17 mph100%29.73 "Hg0 mi
12:55 AM38 °FLight rain. Low clouds.18 mph100%29.73 "Hg0 mi
12:35 AM39 °FFog.14 mph100%29.73 "Hg1 mi
12:15 AM40 °FFog.13 mph100%29.74 "Hg1 mi
Weather by CustomWeather, © 2015

See weather overviewHow to use our weather pages